Wind_Speed
4 5 6 9 11 13 15 16 18 19 20 21 21 22 24 26 26 26 27 28 29 30 30 30 30 30 30 30 30 30 30 29 29 28 27 27 26 26
3 4 5 7 9 11 13 15 16 17 19 20 20 21 21 24 25 26 27 28 29 30 30 31 31 31 31 31 31 31 30 31 30 29 29 29 29 28
1 2 4 5 7 10 12 13 15 16 16 19 20 20 21 23 25 25 26 26 27 28 30 31 31 31 31 32 32 32 32 31 31 31 31 31 30 30
2 1 2 3 5 8 10 12 13 15 16 17 18 19 20 21 23 25 26 27 27 28 28 29 30 31 31 32 32 32 32 32 32 32 33 32 32 32
3 2 3 3 4 6 8 10 11 13 15 15 16 17 18 19 20 23 25 27 28 29 28 28 29 31 32 32 32 32 32 33 34 34 34 34 33 33
4 3 3 4 5 6 7 8 9 11 13 14 15 16 17 18 20 21 23 25 26 28 28 28 28 29 31 32 32 33 33 34 35 34 34 34 34 34
4 4 3 4 5 6 7 8 9 10 12 13 14 15 16 17 19 21 22 23 25 26 27 28 28 29 30 31 32 32 32 33 33 34 34 34 35 35
5 5 4 4 5 6 7 8 9 10 11 13 14 15 16 17 18 19 21 22 24 25 26 27 28 29 30 31 31 31 31 32 33 34 34 35 35 36
6 6 5 5 5 6 7 8 9 10 11 13 14 15 16 17 18 19 21 22 23 24 25 26 26 26 28 28 29 30 31 32 32 33 35 36 37 37
8 6 6 6 6 6 7 8 10 11 12 13 14 15 16 17 18 19 20 21 21 22 23 25 26 26 27 28 29 29 30 31 32 33 34 35 36 37
9 8 7 7 7 7 8 9 10 10 12 13 14 15 16 17 17 18 19 20 21 21 21 23 24 25 26 28 28 29 30 31 32 33 34 34 35 36
10 9 9 8 9 9 9 10 10 11 13 14 15 16 16 17 18 19 20 20 21 22 22 23 24 25 26 27 27 28 29 29 30 31 32 33 34 35
11 11 11 11 11 11 11 11 12 12 13 14 15 16 17 18 18 19 20 21 22 22 23 23 24 25 26 27 29 29 29 30 31 31 32 33 34 35
13 12 12 12 13 13 13 14 14 14 15 16 17 18 18 19 19 20 20 21 21 22 24 24 25 26 27 28 29 30 31 31 32 32 33 34 34 35
15 15 15 14 14 15 15 15 16 16 17 17 18 19 20 20 20 21 21 22 23 23 24 25 26 27 28 29 30 31 32 32 33 33 34 35 35 36
17 17 17 16 16 17 17 17 18 18 19 19 19 20 20 21 21 22 22 23 24 25 25 26 27 28 29 30 31 31 32 33 34 35 36 37 37 38
19 19 19 19 19 19 19 19 19 19 20 20 20 21 21 22 22 22 23 24 25 26 27 28 29 29 30 31 32 33 34 35 35 37 37 38 39 39
21 21 21 21 21 21 21 21 21 21 21 21 22 22 23 23 24 25 25 26 26 27 28 29 30 31 31 32 33 34 35 36 37 37 38 39 39 40
24 23 23 23 23 24 23 23 23 23 23 23 23 24 24 25 26 26 27 28 28 29 30 31 32 32 33 34 35 36 36 37 38 38 39 40 40 41
26 26 26 25 25 26 26 26 26 26 25 25 25 26 26 26 27 28 29 30 30 31 32 33 34 34 35 36 36 37 38 39 39 40 41 41 42 43
28 28 28 27 27 28 28 28 28 28 28 28 28 28 28 28 29 29 30 31 32 33 34 34 35 36 37 38 38 39 40 41 41 42 42 43 44 44
30 30 30 30 30 30 30 30 30 30 29 29 29 30 30 30 31 31 32 32 33 34 35 36 37 37 38 39 40 40 41 42 43 44 45 45 45 45
32 32 32 31 31 32 32 31 31 31 31 31 31 31 31 32 32 33 33 34 35 35 36 37 38 38 39 40 41 42 42 43 44 45 46 47 48 48
Wind_Direction
231 231 226 222 215 213 216 219 221 223 224 223 224 225 225 228 230 232 234 234 235 235 237 237 237 238 239 241 243 245 246 247 249 252 253 254 256 258
238 227 229 223 215 215 216 218 219 223 227 226 227 228 227 229 231 233 235 238 239 239 239 239 240 241 242 242 244 245 246 247 249 250 253 255 256 258
257 224 224 220 216 215 216 219 221 225 227 227 227 230 233 235 234 234 236 237 239 241 241 241 242 243 243 243 244 246 246 247 249 251 253 255 256 258
334 267 236 227 224 220 220 220 223 225 226 228 230 235 236 237 237 236 239 239 240 242 243 243 243 243 243 244 245 246 247 248 250 252 253 255 257 259
335 307 270 255 245 233 226 224 225 226 227 230 232 235 237 238 240 240 241 240 241 242 244 245 244 243 242 243 245 247 248 249 251 252 255 256 257 259
340 319 289 264 252 243 235 231 230 230 230 232 234 235 238 240 241 241 242 242 243 243 244 245 245 244 243 244 245 248 250 252 253 254 256 257 258 259
340 323 302 277 262 251 240 238 239 237 236 236 238 240 243 245 245 245 246 246 246 246 246 246 247 246 245 246 247 249 251 253 254 254 255 257 258 259
335 322 307 293 277 261 250 248 247 246 245 245 245 248 248 249 250 248 249 248 248 248 248 249 249 249 250 249 250 251 253 255 255 256 256 258 259 260
335 328 313 302 285 271 264 258 254 252 251 252 253 255 255 255 255 252 252 252 251 251 250 249 249 250 250 251 254 255 255 257 258 258 258 259 260 261
331 327 318 309 301 285 276 269 261 257 256 256 258 258 258 258 259 256 254 255 254 254 252 252 252 253 254 255 256 256 257 259 260 261 261 261 262 263
325 321 318 311 305 295 286 279 272 264 261 262 261 260 260 259 259 258 256 256 255 255 254 254 255 256 256 256 257 258 258 259 260 261 262 263 263 264
317 312 309 305 300 297 293 288 282 274 270 268 266 263 263 264 263 261 260 259 258 258 257 257 257 256 257 259 260 260 260 262 263 264 264 264 264 266
311 308 303 300 298 296 293 289 284 281 277 271 269 267 267 266 265 264 261 260 259 259 258 259 260 260 260 260 261 262 264 265 265 266 266 266 267 267
305 305 302 298 295 295 294 290 286 283 281 277 272 271 271 269 267 266 265 262 262 261 260 260 261 263 263 263 263 264 265 265 267 268 268 268 269 268
300 300 300 299 297 295 294 293 289 286 283 280 278 275 273 271 270 269 268 266 266 265 264 263 264 264 264 264 265 265 266 267 267 268 269 270 270 270
296 296 296 296 296 295 294 293 291 288 286 283 281 279 276 274 273 271 270 270 269 268 267 268 267 267 267 267 266 267 268 269 270 270 271 272 272 272
292 293 293 293 293 294 294 293 291 290 288 284 282 280 278 277 276 275 273 272 272 272 271 271 270 270 270 270 269 269 270 271 272 272 273 274 274 274
291 291 291 291 291 291 291 292 291 290 288 286 283 280 278 278 277 277 277 276 275 274 274 274 274 275 274 274 273 273 273 273 273 274 274 274 275 276
288 289 290 290 290 289 289 290 289 289 288 287 284 282 280 279 279 279 279 279 278 277 277 277 277 277 277 277 277 277 276 276 276 276 276 276 275 275
286 287 288 289 290 290 289 289 288 287 286 286 286 284 282 282 282 281 281 281 281 280 279 279 278 278 278 278 279 279 278 278 278 278 278 278 277 277
283 284 285 286 288 288 289 289 289 288 286 285 285 285 284 284 284 284 283 283 283 283 282 281 281 280 280 280 280 280 280 280 280 280 280 280 280 280
281 282 283 284 285 287 287 288 288 287 287 286 285 284 284 284 284 285 285 285 285 285 284 284 283 282 282 282 282 282 281 281 281 282 282 282 282 281
279 280 282 283 284 285 286 287 287 286 286 285 285 284 284 284 284 285 286 286 286 285 286 285 285 284 284 284 284 284 283 283 283 283 283 284 284 283
Height
5764 5764 5765 5767 5768 5771 5773 5775 5778 5781 5784 5787 5789 5793 5795 5799 5802 5805 5808 5811 5814 5818 5820 5823 5825 5828 5830 5833 5835 5837 5839 5840 5842 5843 5845 5846 5847 5847
5763 5764 5765 5766 5767 5769 5770 5773 5775 5778 5780 5783 5786 5788 5791 5794 5797 5799 5802 5805 5808 5811 5813 5816 5819 5821 5823 5826 5828 5830 5832 5834 5835 5837 5838 5839 5840 5841
5763 5763 5764 5765 5766 5767 5769 5770 5772 5775 5777 5779 5782 5784 5787 5789 5792 5794 5796 5799 5802 5804 5807 5809 5811 5813 5816 5818 5821 5823 5825 5827 5828 5830 5831 5832 5833 5834
5763 5763 5763 5764 5764 5765 5766 5768 5770 5772 5774 5776 5778 5780 5782 5784 5786 5788 5790 5793 5795 5797 5799 5801 5804 5806 5808 5811 5813 5815 5817 5819 5821 5822 5824 5825 5826 5827
5763 5762 5762 5763 5763 5764 5765 5766 5767 5769 5771 5773 5774 5776 5778 5779 5781 5783 5784 5786 5788 5790 5792 5794 5796 5799 5801 5803 5805 5807 5809 5811 5813 5815 5816 5817 5818 5819
5762 5762 5762 5762 5762 5763 5763 5764 5765 5767 5768 5770 5771 5772 5774 5775 5776 5777 5779 5780 5782 5783 5785 5787 5789 5791 5793 5796 5798 5800 5801 5803 5805 5806 5807 5808 5810 5810
5762 5761 5761 5761 5761 5761 5762 5763 5764 5765 5766 5767 5768 5769 5770 5771 5771 5772 5773 5774 5775 5777 5778 5780 5782 5784 5786 5788 5790 5791 5793 5795 5796 5797 5799 5800 5801 5801
5762 5761 5760 5760 5760 5760 5760 5761 5761 5762 5763 5764 5764 5765 5766 5766 5767 5767 5768 5769 5770 5771 5772 5774 5775 5777 5779 5781 5782 5784 5785 5786 5787 5788 5789 5790 5791 5792
5761 5760 5759 5758 5758 5758 5758 5758 5759 5759 5760 5760 5761 5761 5761 5762 5762 5762 5763 5763 5764 5765 5766 5767 5769 5770 5771 5773 5774 5776 5777 5778 5779 5780 5780 5781 5782 5783
5760 5758 5758 5757 5756 5756 5756 5756 5756 5756 5756 5757 5757 5757 5757 5757 5757 5757 5758 5758 5759 5759 5760 5761 5762 5764 5765 5766 5767 5768 5769 5770 5770 5771 5771 5772 5773 5773
5758 5757 5756 5755 5754 5754 5753 5753 5753 5752 5752 5752 5752 5752 5752 5752 5752 5753 5753 5753 5753 5754 5755 5755 5756 5757 5758 5759 5759 5760 5760 5761 5762 5762 5762 5763 5763 5763
5757 5755 5754 5753 5752 5751 5750 5750 5749 5749 5749 5748 5748 5748 5747 5747 5747 5747 5747 5748 5748 5748 5749 5749 5750 5750 5751 5751 5751 5752 5752 5753 5753 5753 5753 5753 5753 5753
5754 5753 5751 5750 5749 5748 5747 5746 5746 5745 5744 5744 5743 5743 5742 5742 5742 5742 5742 5742 5742 5742 5743 5743 5743 5743 5744 5744 5744 5744 5744 5744 5744 5744 5744 5744 5743 5743
5751 5749 5748 5747 5746 5745 5743 5742 5742 5741 5740 5739 5738 5738 5737 5737 5736 5736 5736 5736 5736 5736 5736 5736 5736 5736 5736 5736 5736 5736 5735 5735 5735 5735 5734 5734 5733 5733
5747 5745 5744 5743 5742 5740 5739 5738 5737 5736 5735 5734 5733 5732 5731 5731 5730 5730 5729 5729 5729 5729 5729 5729 5729 5728 5728 5728 5728 5727 5727 5726 5726 5725 5725 5724 5723 5722
5742 5741 5739 5738 5737 5735 5734 5733 5731 5730 5729 5728 5727 5726 5725 5724 5723 5723 5723 5722 5722 5722 5721 5721 5720 5720 5720 5719 5719 5718 5718 5717 5716 5716 5715 5713 5712 5711
5736 5735 5734 5733 5731 5730 5728 5727 5725 5724 5723 5722 5721 5719 5718 5717 5716 5716 5715 5715 5715 5714 5713 5713 5712 5711 5711 5710 5709 5708 5708 5707 5706 5705 5704 5702 5701 5699
5730 5729 5727 5726 5725 5723 5722 5720 5719 5718 5716 5715 5714 5712 5711 5710 5709 5709 5708 5707 5706 5705 5705 5703 5702 5701 5700 5700 5699 5698 5697 5696 5695 5693 5692 5691 5690 5687
5723 5721 5720 5719 5717 5716 5714 5713 5712 5710 5709 5707 5706 5705 5704 5703 5701 5700 5699 5698 5697 5696 5695 5694 5693 5692 5690 5689 5687 5686 5685 5684 5683 5681 5680 5679 5677 5676
5715 5713 5712 5711 5709 5708 5706 5705 5704 5702 5701 5699 5698 5697 5695 5694 5693 5691 5690 5689 5688 5686 5685 5684 5682 5681 5679 5678 5677 5675 5672 5671 5670 5669 5667 5665 5664 5662
5706 5705 5704 5702 5701 5699 5698 5696 5695 5693 5692 5691 5689 5688 5686 5685 5684 5682 5680 5679 5677 5676 5674 5672 5671 5669 5668 5666 5665 5663 5660 5658 5656 5654 5653 5651 5650 5648
5696 5695 5694 5693 5692 5690 5689 5687 5686 5684 5683 5681 5680 5678 5677 5675 5674 5672 5670 5668 5667 5665 5663 5661 5659 5657 5655 5654 5652 5650 5647 5645 5642 5639 5637 5636 5633 5632
5686 5685 5684 5683 5682 5680 5679 5677 5676 5674 5673 5672 5670 5668 5667 5665 5663 5662 5660 5658 5656 5653 5651 5649 5647 5645 5643 5641 5638 5636 5634 5631 5628 5625 5622 5619 5617 5615